Weather History for Chipley, FL

Change the Weather History Date:

Sunday, January 27, 2013

  Actual Average (KMAI) Record (KMAI)
Temperature  
Mean Temperature 68 °F 51 °F  
Max Temperature 73 °F 62 °F 75 °F (2009)
Min Temperature 62 °F 40 °F 27 °F (2000)
Degree Days  
Heating Degree Days 0    
Month to date heating degree days  
Since 1 July heating degree days  
Cooling Degree Days 2    
Month to date cooling degree days  
Year to date cooling degree days  
Growing Degree Days 18 (Base 50)    
Moisture  
Dew Point 58 °F    
Average Humidity 76    
Maximum Humidity 94    
Minimum Humidity 57    
Precipitation  
Precipitation 0.00 in 0.19 in 0.52 in (2007)
Month to date precipitation 4.30  
Year to date precipitation 4.30  
Sea Level Pressure  
Sea Level Pressure 30.24 in    
Wind  
Wind Speed 5 mph (SE)    
Max Wind Speed 10 mph    
Max Gust Speed 16 mph    
Visibility 10 miles    
Events      
T = Trace of Precipitation, MM = Missing Value Source: NWS Daily Summary

Daily Weather History Graph

Daily Weather History Graph

Search for Another Location

Airport:

Trip Planner

Search our weather history database for the weather conditions in past years. The results will help you decide how hot, cold, wet, or windy it might be!

Date:

Astronomy

Jan. 27, 2013 Rise Set
Actual Time 6:36 AM CST 5:14 PM CST
Civil Twilight 6:11 AM CST 5:39 PM CST
Nautical Twilight 5:42 AM CST 6:08 PM CST
Astronomical Twilight 5:13 AM CST 6:37 PM CST
Moon 6:00 PM CST (1/27) 6:34 AM CST (1/27)
Length of Visible Light 11h 28m
Length of Day
10h 37m
Full, 100% of the Moon is Illuminated
Jan 27
Full
Feb 3
Last Quarter
Feb 10
New
Feb 17
First Quarter
Feb 25
Full

Hourly Weather History & Observations

Time (CST) Temp. Dew Point Humidity Pressure Visibility Wind Dir Wind Speed Gust Speed Precip Events Conditions
12:15 AM 64.4 °F 57.2 °F 77% 30.24 in 10.0 mi South 6.9 mph - N/A   Clear
12:35 AM 62.6 °F 57.2 °F 82% 30.24 in 10.0 mi South 5.8 mph - N/A   Clear
12:55 AM 62.6 °F 57.2 °F 82% 30.24 in 10.0 mi South 5.8 mph - N/A   Clear
1:15 AM 62.6 °F 57.2 °F 82% 30.24 in 10.0 mi South 5.8 mph - N/A   Clear
1:35 AM 62.6 °F 57.2 °F 82% 30.24 in 10.0 mi South 5.8 mph - N/A   Clear
1:55 AM 62.6 °F 55.4 °F 77% 30.24 in 10.0 mi South 4.6 mph - N/A   Clear
2:15 AM 62.6 °F 55.4 °F 77% 30.24 in 10.0 mi SSE 4.6 mph - N/A   Clear
2:35 AM 62.6 °F 55.4 °F 77% 30.24 in 10.0 mi Calm Calm - N/A   Clear
2:55 AM 62.6 °F 57.2 °F 82% 30.24 in 10.0 mi SSE 4.6 mph - N/A   Clear
3:15 AM 62.6 °F 57.2 °F 82% 30.24 in 10.0 mi Calm Calm - N/A   Clear
3:35 AM 62.6 °F 57.2 °F 82% 30.24 in 10.0 mi SSE 3.5 mph - N/A   Clear
3:55 AM 62.6 °F 57.2 °F 82% 30.23 in 10.0 mi SSE 3.5 mph - N/A   Clear
4:15 AM 62.6 °F 57.2 °F 82% 30.23 in 10.0 mi ESE 4.6 mph - N/A   Clear
4:35 AM 62.6 °F 57.2 °F 82% 30.23 in 10.0 mi Calm Calm - N/A   Clear
4:55 AM 62.6 °F 57.2 °F 82% 30.23 in 10.0 mi Calm Calm - N/A   Clear
5:15 AM 62.6 °F 57.2 °F 82% 30.23 in 10.0 mi ESE 3.5 mph - N/A   Clear
5:35 AM 62.6 °F 57.2 °F 82% 30.24 in 10.0 mi ESE 5.8 mph - N/A   Clear
6:15 AM 62.6 °F 57.2 °F 82% 30.24 in 10.0 mi ESE 3.5 mph - N/A   Clear
6:35 AM 62.6 °F 57.2 °F 82% 30.25 in 10.0 mi ESE 4.6 mph - N/A   Clear
6:55 AM 62.6 °F 57.2 °F 82% 30.25 in 10.0 mi ESE 4.6 mph - N/A   Clear
7:15 AM 62.6 °F 57.2 °F 82% 30.25 in 9.0 mi East 4.6 mph - N/A   Clear
7:35 AM 62.6 °F 57.2 °F 82% 30.25 in 10.0 mi ESE 5.8 mph - N/A   Clear
7:55 AM 62.6 °F 59.0 °F 88% 30.26 in 10.0 mi ESE 4.6 mph - N/A   Clear
8:15 AM 62.6 °F 59.0 °F 88% 30.26 in 10.0 mi East 4.6 mph - N/A   Clear
8:35 AM 64.4 °F 59.0 °F 83% 30.27 in 10.0 mi South 3.5 mph - N/A   Clear
8:55 AM 64.4 °F 59.0 °F 83% 30.27 in 10.0 mi SSE 3.5 mph - N/A   Clear
9:15 AM 66.2 °F 60.8 °F 83% 30.28 in 10.0 mi SE 4.6 mph - N/A   Clear
9:35 AM 68.0 °F 60.8 °F 78% 30.28 in 10.0 mi SSE 3.5 mph - N/A   Clear
9:55 AM 69.8 °F 60.8 °F 73% 30.29 in 10.0 mi ESE 4.6 mph - N/A   Clear
10:15 AM 69.8 °F 60.8 °F 73% 30.29 in 10.0 mi ESE 5.8 mph - N/A   Partly Cloudy
10:35 AM 69.8 °F 59.0 °F 68% 30.29 in 10.0 mi SE 6.9 mph - N/A   Scattered Clouds
10:55 AM 71.6 °F 59.0 °F 64% 30.29 in 10.0 mi South 9.2 mph - N/A   Partly Cloudy
11:15 AM 71.6 °F 59.0 °F 64% 30.29 in 10.0 mi SE 8.1 mph - N/A   Partly Cloudy
11:35 AM 71.6 °F 59.0 °F 64% 30.28 in 10.0 mi SE 5.8 mph - N/A   Mostly Cloudy
11:55 AM 71.6 °F 59.0 °F 64% 30.27 in 10.0 mi South 6.9 mph 16.1 mph N/A   Mostly Cloudy
12:15 PM 73.4 °F 59.0 °F 61% 30.26 in 10.0 mi SSE 5.8 mph - N/A   Mostly Cloudy
12:35 PM 73.4 °F 57.2 °F 57% 30.25 in 10.0 mi SSE 6.9 mph - N/A   Scattered Clouds
12:55 PM 73.4 °F 57.2 °F 57% 30.24 in 10.0 mi SE 8.1 mph - N/A   Partly Cloudy
1:15 PM 73.4 °F 57.2 °F 57% 30.23 in 10.0 mi SSE 6.9 mph - N/A   Partly Cloudy
1:35 PM 73.4 °F 57.2 °F 57% 30.23 in 10.0 mi South 9.2 mph 16.1 mph N/A   Partly Cloudy
1:55 PM 73.4 °F 57.2 °F 57% 30.23 in 10.0 mi SSE 3.5 mph - N/A   Clear
2:15 PM 73.4 °F 57.2 °F 57% 30.22 in 10.0 mi South 9.2 mph 16.1 mph N/A   Clear
2:35 PM 73.4 °F 57.2 °F 57% 30.22 in 10.0 mi SSE 6.9 mph - N/A   Clear
2:55 PM 73.4 °F 57.2 °F 57% 30.21 in 10.0 mi South 9.2 mph - N/A   Partly Cloudy
3:15 PM 73.4 °F 57.2 °F 57% 30.21 in 10.0 mi SSE 6.9 mph - N/A   Clear
3:35 PM 71.6 °F 57.2 °F 60% 30.22 in 10.0 mi SSE 10.4 mph - N/A   Scattered Clouds
3:55 PM 71.6 °F 57.2 °F 60% 30.22 in 10.0 mi SSE 8.1 mph - N/A   Partly Cloudy
4:15 PM 71.6 °F 59.0 °F 64% 30.22 in 10.0 mi South 8.1 mph - N/A   Clear
4:35 PM 71.6 °F 57.2 °F 60% 30.22 in 10.0 mi SSE 6.9 mph - N/A   Clear
4:55 PM 69.8 °F 57.2 °F 64% 30.22 in 10.0 mi SE 5.8 mph - N/A   Clear
5:15 PM 69.8 °F 59.0 °F 68% 30.22 in 10.0 mi SSE 4.6 mph - N/A   Clear
5:35 PM 68.0 °F 59.0 °F 73% 30.23 in 10.0 mi Calm Calm - N/A   Clear
5:55 PM 66.2 °F 59.0 °F 78% 30.22 in 10.0 mi SE 5.8 mph - N/A   Clear
6:15 PM 66.2 °F 59.0 °F 78% 30.22 in 10.0 mi SSE 5.8 mph - N/A   Clear
6:35 PM 66.2 °F 59.0 °F 78% 30.23 in 10.0 mi SE 3.5 mph - N/A   Clear
6:55 PM 66.2 °F 59.0 °F 78% 30.23 in 10.0 mi SSE 5.8 mph - N/A   Clear
7:15 PM 64.4 °F 59.0 °F 83% 30.24 in 10.0 mi SE 6.9 mph - N/A   Clear
7:35 PM 64.4 °F 59.0 °F 83% 30.24 in 10.0 mi SE 6.9 mph - N/A   Clear
7:55 PM 64.4 °F 59.0 °F 83% 30.25 in 10.0 mi SE 5.8 mph - N/A   Clear
8:15 PM 64.4 °F 59.0 °F 83% 30.24 in 10.0 mi ESE 4.6 mph - N/A   Clear
8:35 PM 64.4 °F 59.0 °F 83% 30.24 in 10.0 mi SE 8.1 mph - N/A   Clear
8:55 PM 64.4 °F 59.0 °F 83% 30.25 in 10.0 mi ESE 3.5 mph - N/A   Clear
9:15 PM 64.4 °F 59.0 °F 83% 30.25 in 10.0 mi SE 6.9 mph - N/A   Clear
9:35 PM 64.4 °F 59.0 °F 83% 30.24 in 10.0 mi SE 8.1 mph - N/A   Clear
9:55 PM 62.6 °F 59.0 °F 88% 30.24 in 10.0 mi SE 5.8 mph - N/A   Clear
10:15 PM 62.6 °F 59.0 °F 88% 30.24 in 10.0 mi SE 8.1 mph - N/A   Clear
10:35 PM 62.6 °F 59.0 °F 88% 30.25 in 10.0 mi SE 4.6 mph - N/A   Clear
10:55 PM 62.6 °F 60.8 °F 94% 30.24 in 10.0 mi SE 4.6 mph - N/A   Clear
11:15 PM 62.6 °F 60.8 °F 94% 30.24 in 10.0 mi ESE 4.6 mph - N/A   Clear
11:35 PM 62.6 °F 60.8 °F 94% 30.24 in 10.0 mi Calm Calm - N/A   Clear
11:55 PM 62.6 °F 60.8 °F 94% 30.24 in 10.0 mi ESE 4.6 mph - N/A   Clear